Time,TemperatureF,DewpointF,PressureIn,WindDirection,WindDirectionDegrees,WindSpeedMPH,WindSpeedGustMPH,Humidity,HourlyPrecipIn,Conditions,Clouds,dailyrainin,SolarRadiationWatts/m^2,SoftwareType,DateUTC
2013-02-08 00:08:00,-999.0,-99.9,30.05,NNE,20,1.0,-999.0,-999,-99.99,,,0.00,0,weatherlink.com 1.10,2013-02-08 06:08:00,
2013-02-08 00:23:00,-999.0,-99.9,30.06,NNE,19,0.0,-999.0,-999,-99.99,,,0.00,0,weatherlink.com 1.10,2013-02-08 06:23:00,
2013-02-08 00:39:00,-999.0,-99.9,30.07,NNE,26,3.0,-999.0,-999,-99.99,,,0.00,0,weatherlink.com 1.10,2013-02-08 06:39:00,
2013-02-08 00:54:00,-999.0,-99.9,30.07,NW,312,1.0,-999.0,-999,-99.99,,,0.00,0,weatherlink.com 1.10,2013-02-08 06:54:00,
2013-02-08 01:09:00,-999.0,-99.9,30.09,NNE,22,1.0,-999.0,-999,-99.99,,,0.00,0,weatherlink.com 1.10,2013-02-08 07:09:00,
2013-02-08 01:23:00,-999.0,-99.9,30.10,NW,311,0.0,-999.0,-999,-99.99,,,0.00,0,weatherlink.com 1.10,2013-02-08 07:23:00,
2013-02-08 01:38:00,-999.0,-99.9,30.10,North,360,0.0,-999.0,-999,-99.99,,,0.00,0,weatherlink.com 1.10,2013-02-08 07:38:00,
2013-02-08 01:54:00,-999.0,-99.9,30.11,NNE,22,0.0,-999.0,-999,-99.99,,,0.00,0,weatherlink.com 1.10,2013-02-08 07:54:00,
2013-02-08 02:09:00,-999.0,-99.9,30.12,North,5,1.0,-999.0,-999,-99.99,,,0.00,0,weatherlink.com 1.10,2013-02-08 08:09:00,
2013-02-08 02:24:00,-999.0,-99.9,30.14,NW,309,0.0,-999.0,-999,-99.99,,,0.00,0,weatherlink.com 1.10,2013-02-08 08:24:00,
2013-02-08 02:39:00,-999.0,-99.9,30.15,NNE,22,0.0,-999.0,-999,-99.99,,,0.00,0,weatherlink.com 1.10,2013-02-08 08:39:00,
2013-02-08 02:54:00,-999.0,-99.9,30.15,NNE,17,2.0,-999.0,-999,-99.99,,,0.00,0,weatherlink.com 1.10,2013-02-08 08:54:00,
2013-02-08 03:09:00,-999.0,-99.9,30.15,NNE,23,0.0,-999.0,-999,-99.99,,,0.00,0,weatherlink.com 1.10,2013-02-08 09:09:00,
2013-02-08 03:24:00,-999.0,-99.9,30.16,NNE,19,4.0,-999.0,-999,-99.99,,,0.00,0,weatherlink.com 1.10,2013-02-08 09:24:00,
2013-02-08 03:39:00,-999.0,-99.9,30.16,NNE,15,1.0,-999.0,-999,-99.99,,,0.00,0,weatherlink.com 1.10,2013-02-08 09:39:00,
2013-02-08 03:54:00,-999.0,-99.9,30.17,NNW,340,0.0,-999.0,-999,-99.99,,,0.00,0,weatherlink.com 1.10,2013-02-08 09:54:00,
2013-02-08 04:09:00,-999.0,-99.9,30.18,North,5,0.0,-999.0,-999,-99.99,,,0.00,0,weatherlink.com 1.10,2013-02-08 10:09:00,
2013-02-08 04:24:00,-999.0,-99.9,30.20,North,10,0.0,-999.0,-999,-99.99,,,0.00,0,weatherlink.com 1.10,2013-02-08 10:24:00,
2013-02-08 04:39:00,-999.0,-99.9,30.20,North,5,0.0,-999.0,-999,-99.99,,,0.00,0,weatherlink.com 1.10,2013-02-08 10:39:00,
2013-02-08 04:55:00,-999.0,-99.9,30.20,NE,34,3.0,-999.0,-999,-99.99,,,0.00,0,weatherlink.com 1.10,2013-02-08 10:55:00,
2013-02-08 05:11:00,-999.0,-99.9,30.21,NNE,22,3.0,-999.0,-999,-99.99,,,0.00,0,weatherlink.com 1.10,2013-02-08 11:11:00,
2013-02-08 05:25:00,-999.0,-99.9,30.21,NE,38,1.0,-999.0,-999,-99.99,,,0.00,0,weatherlink.com 1.10,2013-02-08 11:25:00,
2013-02-08 05:40:00,-999.0,-99.9,30.22,North,5,1.0,-999.0,-999,-99.99,,,0.00,0,weatherlink.com 1.10,2013-02-08 11:40:00,
2013-02-08 05:55:00,-999.0,-99.9,30.23,North,5,4.0,-999.0,-999,-99.99,,,0.00,0,weatherlink.com 1.10,2013-02-08 11:55:00,
2013-02-08 06:10:00,-999.0,-99.9,30.24,NNE,25,4.0,-999.0,-999,-99.99,,,0.00,0,weatherlink.com 1.10,2013-02-08 12:10:00,
2013-02-08 06:25:00,-999.0,-99.9,30.25,North,360,2.0,-999.0,-999,-99.99,,,0.00,0,weatherlink.com 1.10,2013-02-08 12:25:00,
2013-02-08 06:40:00,-999.0,-99.9,30.27,North,9,1.0,-999.0,-999,-99.99,,,0.00,0,weatherlink.com 1.10,2013-02-08 12:40:00,
2013-02-08 06:55:00,-999.0,-99.9,30.28,NNE,24,2.0,-999.0,-999,-99.99,,,0.00,0,weatherlink.com 1.10,2013-02-08 12:55:00,
2013-02-08 07:10:00,-999.0,-99.9,30.29,NNE,22,1.0,-999.0,-999,-99.99,,,0.00,0,weatherlink.com 1.10,2013-02-08 13:10:00,
2013-02-08 07:25:00,-999.0,-99.9,30.30,NNE,24,0.0,-999.0,-999,-99.99,,,0.00,0,weatherlink.com 1.10,2013-02-08 13:25:00,
2013-02-08 07:40:00,-999.0,-99.9,30.31,NNE,16,3.0,-999.0,-999,-99.99,,,0.00,7,weatherlink.com 1.10,2013-02-08 13:40:00,
2013-02-08 07:55:00,-999.0,-99.9,30.32,North,9,2.0,-999.0,-999,-99.99,,,0.00,14,weatherlink.com 1.10,2013-02-08 13:55:00,
2013-02-08 08:10:00,-999.0,-99.9,30.32,NNE,28,1.0,-999.0,-999,-99.99,,,0.00,26,weatherlink.com 1.10,2013-02-08 14:10:00,
2013-02-08 08:26:00,-999.0,-99.9,30.33,NNE,28,4.0,-999.0,-999,-99.99,,,0.00,33,weatherlink.com 1.10,2013-02-08 14:26:00,
2013-02-08 08:41:00,-999.0,-99.9,30.33,North,5,1.0,-999.0,-999,-99.99,,,0.00,54,weatherlink.com 1.10,2013-02-08 14:41:00,
2013-02-08 08:56:00,-999.0,-99.9,30.34,NE,36,3.0,-999.0,-999,-99.99,,,0.00,54,weatherlink.com 1.10,2013-02-08 14:56:00,
2013-02-08 09:11:00,-999.0,-99.9,30.35,NNE,16,0.0,-999.0,-999,-99.99,,,0.00,60,weatherlink.com 1.10,2013-02-08 15:11:00,
2013-02-08 09:26:00,-999.0,-99.9,30.35,North,5,2.0,-999.0,-999,-99.99,,,0.00,58,weatherlink.com 1.10,2013-02-08 15:26:00,
2013-02-08 09:41:00,-999.0,-99.9,30.34,NE,43,4.0,-999.0,-999,-99.99,,,0.00,76,weatherlink.com 1.10,2013-02-08 15:41:00,
2013-02-08 09:56:00,-999.0,-99.9,30.34,North,360,1.0,-999.0,-999,-99.99,,,0.00,72,weatherlink.com 1.10,2013-02-08 15:56:00,
2013-02-08 10:11:00,-999.0,-99.9,30.35,NNE,25,1.0,-999.0,-999,-99.99,,,0.00,70,weatherlink.com 1.10,2013-02-08 16:11:00,
2013-02-08 10:26:00,-999.0,-99.9,30.37,North,11,1.0,-999.0,-999,-99.99,,,0.00,65,weatherlink.com 1.10,2013-02-08 16:26:00,
2013-02-08 10:41:00,-999.0,-99.9,30.36,NW,309,0.0,-999.0,-999,-99.99,,,0.00,77,weatherlink.com 1.10,2013-02-08 16:41:00,
2013-02-08 10:56:00,-999.0,-99.9,30.37,NNE,24,4.0,-999.0,-999,-99.99,,,0.00,86,weatherlink.com 1.10,2013-02-08 16:56:00,
2013-02-08 11:12:00,-999.0,-99.9,30.35,North,360,0.0,-999.0,-999,-99.99,,,0.00,120,weatherlink.com 1.10,2013-02-08 17:12:00,
2013-02-08 11:26:00,-999.0,-99.9,30.35,NW,323,0.0,-999.0,-999,-99.99,,,0.00,125,weatherlink.com 1.10,2013-02-08 17:26:00,
2013-02-08 11:41:00,25.7,-99.9,30.35,NNE,17,3.0,-999.0,-999,-99.99,,,0.00,134,weatherlink.com 1.10,2013-02-08 17:41:00,
2013-02-08 11:56:00,-999.0,-99.9,30.35,NNE,25,0.0,-999.0,-999,-99.99,,,0.00,125,weatherlink.com 1.10,2013-02-08 17:56:00,
2013-02-08 12:12:00,25.9,-99.9,30.36,NNE,31,0.0,-999.0,-999,-99.99,,,0.00,130,weatherlink.com 1.10,2013-02-08 18:12:00,
2013-02-08 12:27:00,-999.0,-99.9,30.37,NNE,15,4.0,-999.0,-999,-99.99,,,0.00,127,weatherlink.com 1.10,2013-02-08 18:27:00,
2013-02-08 12:42:00,26.3,-99.9,30.39,NNE,30,0.0,-999.0,-999,-99.99,,,0.00,116,weatherlink.com 1.10,2013-02-08 18:42:00,
2013-02-08 12:57:00,26.2,23.0,30.39,NW,317,0.0,-999.0,87,-99.99,,,0.00,130,weatherlink.com 1.10,2013-02-08 18:57:00,
2013-02-08 13:12:00,26.0,22.0,30.40,NNE,30,2.0,-999.0,86,-99.99,,,0.00,120,weatherlink.com 1.10,2013-02-08 19:12:00,
2013-02-08 13:27:00,26.2,23.0,30.41,NNE,21,3.0,-999.0,87,-99.99,,,0.00,139,weatherlink.com 1.10,2013-02-08 19:27:00,
2013-02-08 13:42:00,26.1,23.0,30.41,NNW,348,2.0,-999.0,86,-99.99,,,0.00,100,weatherlink.com 1.10,2013-02-08 19:42:00,
2013-02-08 13:57:00,26.1,23.0,30.41,NW,325,0.0,-999.0,86,-99.99,,,0.00,120,weatherlink.com 1.10,2013-02-08 19:57:00,
2013-02-08 14:12:00,26.0,22.0,30.42,NNW,340,0.0,-999.0,86,-99.99,,,0.00,105,weatherlink.com 1.10,2013-02-08 20:12:00,
2013-02-08 14:27:00,25.9,22.0,30.42,NE,37,0.0,-999.0,86,-99.99,,,0.00,98,weatherlink.com 1.10,2013-02-08 20:27:00,
2013-02-08 14:42:00,25.8,22.0,30.42,North,360,0.0,-999.0,86,-99.99,,,0.00,102,weatherlink.com 1.10,2013-02-08 20:42:00,
2013-02-08 14:57:00,26.0,22.0,30.43,NNW,344,0.0,-999.0,85,-99.99,,,0.00,84,weatherlink.com 1.10,2013-02-08 20:57:00,
2013-02-08 15:12:00,25.5,22.0,30.43,NW,304,1.0,-999.0,85,-99.99,,,0.00,74,weatherlink.com 1.10,2013-02-08 21:12:00,
2013-02-08 15:27:00,24.9,21.0,30.43,NNE,30,0.0,-999.0,86,-99.99,,,0.00,58,weatherlink.com 1.10,2013-02-08 21:27:00,
2013-02-08 15:42:00,24.5,21.0,30.43,NNW,344,0.0,-999.0,86,-99.99,,,0.00,44,weatherlink.com 1.10,2013-02-08 21:42:00,
2013-02-08 15:57:00,24.5,21.0,30.44,NNE,19,0.0,-999.0,86,-99.99,,,0.00,46,weatherlink.com 1.10,2013-02-08 21:57:00,
2013-02-08 16:12:00,24.1,21.0,30.44,NNE,28,0.0,-999.0,86,-99.99,,,0.00,35,weatherlink.com 1.10,2013-02-08 22:12:00,
2013-02-08 16:27:00,23.9,21.0,30.45,NNW,328,0.0,-999.0,87,-99.99,,,0.00,28,weatherlink.com 1.10,2013-02-08 22:27:00,
2013-02-08 16:43:00,23.5,20.0,30.45,NNW,346,0.0,-999.0,86,-99.99,,,0.00,14,weatherlink.com 1.10,2013-02-08 22:43:00,
2013-02-08 16:57:00,22.9,20.0,30.45,NNE,12,0.0,-999.0,87,-99.99,,,0.00,7,weatherlink.com 1.10,2013-02-08 22:57:00,
2013-02-08 17:12:00,22.2,19.0,30.46,North,5,0.0,-999.0,87,-99.99,,,0.00,0,weatherlink.com 1.10,2013-02-08 23:12:00,
2013-02-08 17:27:00,21.7,18.0,30.47,NNE,15,0.0,-999.0,87,-99.99,,,0.00,0,weatherlink.com 1.10,2013-02-08 23:27:00,
2013-02-08 17:42:00,21.2,18.0,30.47,NNE,14,0.0,-999.0,88,-99.99,,,0.00,0,weatherlink.com 1.10,2013-02-08 23:42:00,
2013-02-08 17:58:00,21.0,18.0,30.47,NNE,18,0.0,-999.0,88,-99.99,,,0.00,0,weatherlink.com 1.10,2013-02-08 23:58:00,
2013-02-08 18:12:00,21.3,19.0,30.47,NNE,22,0.0,-999.0,89,-99.99,,,0.00,0,weatherlink.com 1.10,2013-02-09 00:12:00,
2013-02-08 18:27:00,21.6,19.0,30.47,ENE,63,0.0,-999.0,89,-99.99,,,0.00,0,weatherlink.com 1.10,2013-02-09 00:27:00,
2013-02-08 18:43:00,21.7,19.0,30.47,NNE,16,0.0,-999.0,89,-99.99,,,0.00,0,weatherlink.com 1.10,2013-02-09 00:43:00,
2013-02-08 18:57:00,21.7,19.0,30.47,NNE,16,0.0,-999.0,90,-99.99,,,0.00,0,weatherlink.com 1.10,2013-02-09 00:57:00,
2013-02-08 19:13:00,21.7,19.0,30.47,North,10,0.0,-999.0,90,-99.99,,,0.00,0,weatherlink.com 1.10,2013-02-09 01:13:00,
2013-02-08 19:28:00,21.6,19.0,30.48,North,9,0.0,-999.0,90,-99.99,,,0.00,0,weatherlink.com 1.10,2013-02-09 01:28:00,
2013-02-08 19:42:00,21.3,19.0,30.48,North,9,0.0,-999.0,90,-99.99,,,0.00,0,weatherlink.com 1.10,2013-02-09 01:42:00,
2013-02-08 19:58:00,21.2,19.0,30.48,North,9,0.0,-999.0,90,-99.99,,,0.00,0,weatherlink.com 1.10,2013-02-09 01:58:00,
2013-02-08 20:12:00,21.2,19.0,30.48,North,10,0.0,-999.0,90,-99.99,,,0.00,0,weatherlink.com 1.10,2013-02-09 02:12:00,
2013-02-08 20:27:00,21.4,19.0,30.48,North,10,0.0,-999.0,90,-99.99,,,0.00,0,weatherlink.com 1.10,2013-02-09 02:27:00,
2013-02-08 20:43:00,21.6,19.0,30.48,North,9,0.0,-999.0,91,-99.99,,,0.00,0,weatherlink.com 1.10,2013-02-09 02:43:00,
2013-02-08 20:59:00,21.7,20.0,30.49,North,9,0.0,-999.0,91,-99.99,,,0.00,0,weatherlink.com 1.10,2013-02-09 02:59:00,
2013-02-08 21:13:00,21.8,20.0,30.49,North,9,0.0,-999.0,91,-99.99,,,0.00,0,weatherlink.com 1.10,2013-02-09 03:13:00,
2013-02-08 21:28:00,22.2,20.0,30.49,NNE,15,0.0,-999.0,91,-99.99,,,0.00,0,weatherlink.com 1.10,2013-02-09 03:28:00,
2013-02-08 21:43:00,22.5,20.0,30.50,NNE,18,0.0,-999.0,91,-99.99,,,0.00,0,weatherlink.com 1.10,2013-02-09 03:43:00,
2013-02-08 21:58:00,22.7,21.0,30.49,NNE,18,0.0,-999.0,91,-99.99,,,0.00,0,weatherlink.com 1.10,2013-02-09 03:58:00,
2013-02-08 22:13:00,22.9,21.0,30.49,NNE,19,0.0,-999.0,91,-99.99,,,0.00,0,weatherlink.com 1.10,2013-02-09 04:13:00,
2013-02-08 22:28:00,23.1,21.0,30.49,NNE,19,0.0,-999.0,91,-99.99,,,0.00,0,weatherlink.com 1.10,2013-02-09 04:28:00,
2013-02-08 22:43:00,23.3,21.0,30.49,NNE,19,0.0,-999.0,91,-99.99,,,0.00,0,weatherlink.com 1.10,2013-02-09 04:43:00,
2013-02-08 22:58:00,23.5,22.0,30.48,NNE,19,0.0,-999.0,92,-99.99,,,0.00,0,weatherlink.com 1.10,2013-02-09 04:58:00,
2013-02-08 23:13:00,23.6,22.0,30.49,NNE,19,0.0,-999.0,92,-99.99,,,0.00,0,weatherlink.com 1.10,2013-02-09 05:13:00,
2013-02-08 23:28:00,23.5,22.0,30.49,NNE,18,0.0,-999.0,92,-99.99,,,0.00,0,weatherlink.com 1.10,2013-02-09 05:28:00,
2013-02-08 23:43:00,23.4,22.0,30.49,NNE,18,0.0,-999.0,92,-99.99,,,0.00,0,weatherlink.com 1.10,2013-02-09 05:43:00,
2013-02-08 23:58:00,23.2,21.0,30.49,NNE,18,0.0,-999.0,92,-99.99,,,0.00,0,weatherlink.com 1.10,2013-02-09 05:58:00,